FW1358 Weather Reports


time (UTC)temp
C
wind
direction
speed
KPH
gust
KPH
rain 1hr
cm
rain 24hr
cm
rain mn
cm
humidity
%
barometer
mb
20260504041803 13 10 0.0 0.0 0.00 0.00 0.00 61 1016.6
20260504041303 13 10 0.0 0.0 0.00 0.00 0.00 60 1016.7
20260504040803 13 10 0.0 0.0 0.00 0.00 0.00 60 1016.7
20260504035304 13 10 0.0 0.0 0.00 0.00 0.00 59 1016.9
20260504034803 13 10 0.0 0.0 0.00 0.00 0.00 59 1016.9
20260504033804 13 10 0.0 0.0 0.00 0.00 0.00 59 1016.9
20260504033303 13 10 0.0 0.0 0.00 0.00 0.00 58 1016.9
20260504031303 14 10 0.0 0.0 0.00 0.00 0.00 58 1017.1
20260504030803 14 10 0.0 0.0 0.00 0.00 0.00 57 1017.1
20260504030303 14 10 0.0 0.0 0.00 0.00 0.00 57 1017.2
20260504025803 14 10 0.0 0.0 0.00 0.00 0.00 56 1017.1
20260504024303 15 10 0.0 0.0 0.00 0.00 0.00 54 1017.2
20260504023803 15 10 0.0 0.0 0.00 0.00 0.00 54 1017.1
20260504022804 15 10 0.0 0.0 0.00 0.00 0.00 53 1017.0
20260504022304 15 10 0.0 0.0 0.00 0.00 0.00 53 1016.9
20260504020304 15 10 0.0 0.0 0.00 0.00 0.00 53 1016.4
20260504013803 15 10 0.0 0.0 0.00 0.00 0.00 53 1016.1
20260504013303 16 10 0.0 0.0 0.00 0.00 0.00 52 1016.2
20260504012803 16 10 0.0 0.0 0.00 0.00 0.00 51 1016.1
20260504010804 16 10 0.0 0.0 0.00 0.00 0.00 48 1016.3
20260504005803 17 10 0.0 0.0 0.00 0.00 0.00 48 1016.3
20260504003803 17 10 0.0 0.0 0.00 0.00 0.00 45 1016.2
20260504002304 18 10 0.0 0.0 0.00 0.00 0.00 43 1016.3
20260504001302 18 10 0.0 0.0 0.00 0.00 0.00 42 1016.4
20260504000303 18 10 0.0 0.0 0.00 0.00 0.00 41 1016.5
20260503235304 18 10 0.0 0.0 0.00 0.00 0.00 39 1016.6
20260503233303 19 10 0.0 0.0 0.00 0.00 0.00 38 1016.7
20260503232803 19 10 0.0 0.0 0.00 0.00 0.00 39 1016.8
20260503232305 19 10 0.0 0.0 0.00 0.00 0.00 39 1016.8
20260503230803 19 10 0.0 0.0 0.00 0.03 0.00 38 1016.7
20260503230303 19 10 0.0 0.0 0.00 0.03 0.00 37 1016.7
20260503225804 19 10 0.0 1.6 0.00 0.03 0.00 36 1016.8
20260503224803 20 0 0.0 4.8 0.00 0.03 0.00 35 1017.0
20260503224303 20 5 0.0 0.0 0.00 0.03 0.00 35 1017.1
20260503223303 20 5 0.0 0.0 0.00 0.03 0.00 35 1017.2
20260503221304 21 5 0.0 0.0 0.00 0.03 0.00 32 1017.5
20260503220303 21 5 0.0 4.8 0.00 0.03 0.00 31 1017.6
20260503215803 21 5 0.0 4.8 0.00 0.03 0.00 34 1017.7
20260503214803 21 246 0.0 0.0 0.00 0.05 0.00 31 1017.7
20260503214303 21 246 0.0 0.0 0.00 0.08 0.00 31 1017.7
20260503213803 21 246 0.0 0.0 0.00 0.10 0.00 35 1017.8
20260503213303 21 246 0.0 4.8 0.00 0.10 0.00 34 1017.9
20260503212305 22 260 0.0 4.8 0.00 0.10 0.00 33 1018.1
20260503210303 21 338 0.0 0.0 0.00 0.10 0.00 35 1018.2
20260503204803 21 338 1.6 11.3 0.00 0.10 0.00 33 1018.5
20260503203303 21 287 0.0 1.6 0.00 0.10 0.00 34 1018.8
20260503202304 21 76 0.0 0.0 0.00 0.10 0.00 36 1019.0
20260503201303 21 76 0.0 0.0 0.00 0.10 0.00 34 1019.0
20260503200803 21 76 0.0 4.8 0.00 0.10 0.00 35 1019.3
20260503195304 21 303 0.0 8.0 0.00 0.10 0.00 36 1019.5
20260503194803 21 212 3.2 4.8 0.00 0.10 0.00 36 1019.5
20260503194303 21 301 0.0 4.8 0.00 0.10 0.00 34 1019.6
20260503193803 21 352 0.0 0.0 0.00 0.10 0.00 35 1019.7
20260503193304 21 352 0.0 1.6 0.00 0.10 0.00 38 1019.7
20260503192803 21 352 0.0 1.6 0.00 0.10 0.00 35 1019.8
20260503192305 21 0 0.0 0.0 0.00 0.10 0.00 36 1019.7
20260503191804 21 0 0.0 0.0 0.00 0.10 0.00 36 1019.9
20260503191303 21 0 0.0 3.2 0.00 0.10 0.00 33 1020.0
20260503190803 21 0 0.0 3.2 0.00 0.10 0.00 36 1020.1
20260503190303 21 295 0.0 1.6 0.00 0.10 0.00 36 1020.1
20260503184803 21 221 0.0 0.0 0.00 0.10 0.00 36 1020.3
20260503184304 20 221 0.0 0.0 0.00 0.10 0.00 33 1020.4
20260503183303 20 221 0.0 1.6 0.00 0.10 0.00 36 1020.6
20260503182804 20 221 0.0 1.6 0.00 0.10 0.00 35 1020.6
20260503180303 19 269 0.0 0.0 0.00 0.10 0.00 37 1020.9
20260503173803 18 269 0.0 0.0 0.00 0.10 0.00 38 1021.3
20260503172803 18 269 0.0 0.0 0.00 0.10 0.00 38 1021.6
20260503171303 17 269 0.0 0.0 0.00 0.10 0.00 38 1021.7
20260503170803 17 269 0.0 0.0 0.00 0.10 0.00 42 1021.9
20260503150803 11 269 0.0 0.0 0.00 0.10 0.00 80 1022.7
20260503150303 11 269 0.0 0.0 0.00 0.10 0.00 80 1022.6
20260503140303 7 269 0.0 0.0 0.00 0.10 0.00 94 1022.6
20260503130803 6 150 0.0 0.0 0.00 0.10 0.00 94 1022.5
20260503130303 5 150 0.0 0.0 0.00 0.10 0.00 94 1022.5
20260503110803 3 224 0.0 0.0 0.00 0.10 0.00 90 1021.3
20260503110303 3 224 0.0 0.0 0.00 0.10 0.00 89 1021.3
20260503080803 5 224 0.0 0.0 0.00 0.10 0.00 87 1020.5
20260503072803 6 224 0.0 0.0 0.00 0.10 0.00 88 1020.4
20260503071303 6 224 0.0 0.0 0.00 0.10 0.00 89 1020.3
20260503070303 7 224 0.0 0.0 0.00 0.10 0.00 89 1020.3
20260503060303 7 224 0.0 0.0 0.00 0.10 0.00 88 1020.4
20260503054303 7 224 0.0 0.0 0.00 0.10 0.00 87 1020.5
20260503053803 7 224 0.0 0.0 0.00 0.10 0.00 87 1020.4
20260503053303 7 224 0.0 0.0 0.00 0.10 0.00 87 1020.5
20260503052803 7 224 0.0 0.0 0.00 0.10 0.00 87 1020.4
20260503052305 7 224 0.0 0.0 0.00 0.10 0.00 87 1020.4
20260503051303 7 224 0.0 0.0 0.00 0.10 0.00 87 1020.3
20260503050303 7 224 0.0 0.0 0.00 0.10 0.00 87 1020.1
20260503045305 7 224 0.0 0.0 0.00 0.10 0.10 87 1020.0
20260503044803 7 224 0.0 0.0 0.00 0.10 0.10 87 1020.0
20260503044304 7 224 0.0 0.0 0.00 0.10 0.10 87 1020.0
20260503043803 7 224 0.0 0.0 0.00 0.10 0.10 87 1020.0
20260503043303 7 224 0.0 0.0 0.00 0.10 0.10 88 1020.0